Precipitable_Water
0.38 0.37 0.37 0.41 0.39 0.38 0.37 0.39 0.33 0.33 0.36 0.39 0.46 0.53 0.57 0.65 0.68 0.67 0.63 0.62 0.63 0.59 0.56 0.53 0.48 0.49 0.52 0.52 0.52 0.52 0.49 0.45 0.43 0.43 0.42 0.39 0.37 0.34 0.31 0.29 0.31 0.29 0.24 0.21
0.36 0.37 0.36 0.35 0.39 0.40 0.41 0.41 0.41 0.39 0.36 0.46 0.52 0.56 0.58 0.56 0.59 0.58 0.58 0.61 0.62 0.59 0.57 0.54 0.48 0.49 0.50 0.51 0.50 0.50 0.46 0.44 0.43 0.40 0.36 0.35 0.32 0.30 0.27 0.26 0.27 0.27 0.21 0.18
0.25 0.31 0.30 0.26 0.29 0.31 0.33 0.35 0.33 0.30 0.34 0.41 0.42 0.43 0.42 0.48 0.51 0.54 0.55 0.58 0.59 0.57 0.57 0.54 0.48 0.50 0.48 0.48 0.48 0.46 0.45 0.44 0.38 0.35 0.32 0.29 0.27 0.27 0.25 0.23 0.21 0.20 0.19 0.18
0.24 0.26 0.18 0.27 0.32 0.30 0.29 0.30 0.34 0.35 0.38 0.38 0.37 0.41 0.48 0.47 0.46 0.51 0.54 0.57 0.59 0.58 0.56 0.52 0.49 0.49 0.47 0.46 0.45 0.45 0.41 0.39 0.36 0.33 0.28 0.28 0.27 0.26 0.24 0.23 0.21 0.19 0.16 0.16
0.22 0.20 0.24 0.26 0.27 0.31 0.33 0.32 0.37 0.36 0.38 0.39 0.40 0.46 0.46 0.52 0.52 0.54 0.57 0.60 0.61 0.59 0.54 0.51 0.48 0.48 0.46 0.45 0.45 0.41 0.39 0.36 0.33 0.28 0.22 0.23 0.22 0.22 0.25 0.22 0.20 0.19 0.18 0.17
0.23 0.18 0.15 0.21 0.31 0.36 0.36 0.24 0.34 0.35 0.35 0.37 0.38 0.31 0.37 0.50 0.54 0.55 0.56 0.59 0.57 0.56 0.54 0.50 0.49 0.49 0.46 0.47 0.43 0.41 0.38 0.32 0.30 0.25 0.21 0.20 0.21 0.24 0.24 0.26 0.23 0.21 0.18 0.16
0.21 0.21 0.23 0.29 0.32 0.33 0.21 0.22 0.32 0.35 0.37 0.36 0.33 0.40 0.46 0.51 0.51 0.54 0.55 0.54 0.53 0.51 0.49 0.49 0.51 0.50 0.47 0.45 0.41 0.40 0.37 0.32 0.28 0.22 0.22 0.24 0.23 0.23 0.22 0.23 0.22 0.20 0.18 0.16
0.25 0.22 0.18 0.35 0.33 0.27 0.35 0.40 0.39 0.40 0.40 0.38 0.39 0.41 0.44 0.47 0.48 0.49 0.49 0.49 0.49 0.48 0.48 0.52 0.52 0.50 0.45 0.42 0.43 0.39 0.34 0.29 0.25 0.24 0.25 0.23 0.22 0.23 0.23 0.22 0.21 0.19 0.17 0.14
0.24 0.24 0.34 0.36 0.33 0.37 0.39 0.35 0.40 0.40 0.43 0.42 0.39 0.39 0.43 0.43 0.45 0.46 0.47 0.47 0.49 0.48 0.48 0.51 0.51 0.49 0.43 0.43 0.40 0.33 0.28 0.25 0.24 0.24 0.24 0.23 0.22 0.22 0.21 0.21 0.19 0.17 0.15 0.13
0.23 0.24 0.29 0.31 0.37 0.39 0.42 0.42 0.41 0.41 0.43 0.42 0.38 0.40 0.39 0.41 0.42 0.43 0.45 0.46 0.47 0.46 0.45 0.46 0.48 0.46 0.44 0.41 0.35 0.29 0.26 0.24 0.24 0.23 0.20 0.20 0.20 0.20 0.19 0.18 0.17 0.15 0.14 0.12
0.26 0.32 0.33 0.34 0.39 0.44 0.46 0.46 0.44 0.42 0.41 0.43 0.41 0.39 0.40 0.41 0.41 0.42 0.43 0.44 0.44 0.43 0.42 0.42 0.44 0.43 0.41 0.37 0.32 0.29 0.27 0.25 0.22 0.20 0.19 0.17 0.15 0.15 0.14 0.15 0.16 0.15 0.14 0.13
0.20 0.37 0.38 0.37 0.43 0.50 0.48 0.47 0.49 0.50 0.45 0.45 0.43 0.39 0.41 0.41 0.43 0.43 0.42 0.43 0.42 0.41 0.40 0.40 0.40 0.39 0.38 0.36 0.34 0.30 0.23 0.22 0.19 0.18 0.19 0.17 0.18 0.18 0.19 0.19 0.18 0.17 0.16 0.15
0.34 0.39 0.40 0.43 0.43 0.46 0.45 0.47 0.46 0.49 0.46 0.42 0.41 0.41 0.41 0.41 0.43 0.43 0.43 0.43 0.42 0.40 0.39 0.40 0.41 0.40 0.38 0.37 0.33 0.27 0.22 0.21 0.21 0.20 0.18 0.18 0.18 0.17 0.16 0.18 0.19 0.18 0.17 0.16
0.38 0.37 0.32 0.38 0.35 0.42 0.46 0.47 0.48 0.47 0.45 0.43 0.41 0.42 0.42 0.42 0.43 0.43 0.43 0.44 0.43 0.41 0.40 0.39 0.39 0.37 0.37 0.35 0.31 0.24 0.23 0.22 0.20 0.19 0.19 0.19 0.19 0.18 0.17 0.16 0.15 0.15 0.17 0.15
0.37 0.43 0.40 0.41 0.41 0.41 0.44 0.45 0.43 0.42 0.42 0.41 0.42 0.41 0.41 0.41 0.43 0.44 0.45 0.45 0.43 0.41 0.39 0.38 0.37 0.36 0.37 0.31 0.26 0.23 0.22 0.21 0.20 0.19 0.19 0.18 0.18 0.18 0.17 0.17 0.16 0.15 0.15 0.14
0.42 0.42 0.40 0.38 0.40 0.41 0.43 0.43 0.41 0.40 0.39 0.39 0.39 0.41 0.43 0.45 0.43 0.43 0.43 0.43 0.41 0.38 0.39 0.38 0.38 0.37 0.32 0.28 0.24 0.23 0.22 0.21 0.20 0.18 0.18 0.18 0.18 0.16 0.16 0.16 0.16 0.15 0.14 0.12
0.36 0.33 0.35 0.36 0.37 0.38 0.39 0.40 0.38 0.38 0.39 0.39 0.40 0.42 0.43 0.42 0.41 0.41 0.42 0.42 0.41 0.40 0.40 0.39 0.37 0.35 0.28 0.24 0.22 0.22 0.19 0.19 0.18 0.18 0.18 0.17 0.16 0.16 0.15 0.15 0.15 0.13 0.13 0.14
0.39 0.36 0.37 0.37 0.35 0.35 0.35 0.37 0.38 0.39 0.38 0.39 0.40 0.39 0.39 0.39 0.38 0.39 0.40 0.40 0.39 0.38 0.38 0.38 0.35 0.28 0.23 0.23 0.21 0.20 0.19 0.19 0.18 0.17 0.16 0.15 0.15 0.15 0.14 0.14 0.14 0.14 0.14 0.15
0.36 0.34 0.33 0.31 0.30 0.28 0.28 0.29 0.32 0.35 0.37 0.37 0.37 0.37 0.39 0.39 0.39 0.38 0.38 0.37 0.35 0.34 0.35 0.34 0.28 0.24 0.23 0.22 0.21 0.20 0.18 0.17 0.16 0.16 0.15 0.14 0.14 0.14 0.14 0.14 0.14 0.15 0.16 0.15
0.33 0.33 0.31 0.29 0.28 0.28 0.27 0.29 0.30 0.30 0.33 0.34 0.35 0.35 0.35 0.37 0.38 0.37 0.36 0.35 0.35 0.35 0.32 0.28 0.24 0.23 0.23 0.23 0.22 0.21 0.19 0.17 0.15 0.14 0.13 0.13 0.13 0.13 0.13 0.14 0.16 0.16 0.16 0.15
0.30 0.29 0.27 0.26 0.25 0.26 0.26 0.27 0.26 0.26 0.29 0.31 0.30 0.31 0.32 0.34 0.36 0.36 0.34 0.33 0.35 0.35 0.29 0.25 0.22 0.21 0.21 0.20 0.20 0.18 0.17 0.15 0.15 0.14 0.14 0.14 0.14 0.15 0.16 0.16 0.16 0.16 0.15 0.15
0.28 0.26 0.25 0.25 0.24 0.24 0.26 0.27 0.28 0.28 0.28 0.29 0.30 0.30 0.29 0.30 0.32 0.34 0.35 0.33 0.35 0.33 0.27 0.24 0.22 0.20 0.20 0.20 0.19 0.19 0.17 0.16 0.15 0.15 0.15 0.15 0.16 0.17 0.17 0.16 0.16 0.15 0.15 0.14
0.25 0.25 0.26 0.26 0.25 0.27 0.29 0.29 0.30 0.30 0.30 0.29 0.29 0.29 0.29 0.29 0.29 0.29 0.29 0.34 0.34 0.32 0.27 0.26 0.25 0.22 0.20 0.20 0.19 0.18 0.17 0.17 0.16 0.16 0.16 0.17 0.19 0.18 0.16 0.16 0.15 0.15 0.14 0.13
0.25 0.26 0.27 0.28 0.28 0.27 0.26 0.28 0.29 0.31 0.31 0.31 0.31 0.31 0.30 0.30 0.30 0.32 0.32 0.33 0.32 0.31 0.28 0.27 0.25 0.22 0.20 0.20 0.19 0.18 0.18 0.17 0.16 0.17 0.18 0.18 0.17 0.16 0.16 0.16 0.15 0.14 0.13 0.12
0.28 0.28 0.28 0.28 0.27 0.26 0.27 0.28 0.29 0.31 0.31 0.31 0.31 0.32 0.32 0.32 0.30 0.32 0.32 0.31 0.31 0.30 0.28 0.27 0.24 0.23 0.22 0.21 0.20 0.19 0.17 0.16 0.16 0.16 0.17 0.17 0.15 0.15 0.16 0.15 0.14 0.13 0.12 0.12
0.30 0.30 0.30 0.31 0.31 0.30 0.29 0.30 0.30 0.30 0.30 0.29 0.30 0.31 0.32 0.32 0.32 0.32 0.31 0.31 0.31 0.29 0.27 0.25 0.23 0.22 0.21 0.19 0.18 0.17 0.16 0.16 0.17 0.18 0.17 0.16 0.16 0.16 0.15 0.14 0.13 0.12 0.12 0.11
0.34 0.34 0.32 0.32 0.33 0.32 0.32 0.32 0.31 0.30 0.31 0.31 0.30 0.31 0.32 0.32 0.32 0.32 0.31 0.30 0.30 0.28 0.26 0.25 0.23 0.22 0.21 0.20 0.19 0.17 0.17 0.19 0.18 0.17 0.16 0.16 0.17 0.16 0.14 0.14 0.13 0.12 0.11 0.10
Wind_Speed
27 22 18 21 29 26 26 25 26 27 27 26 28 27 29 28 26 24 25 25 25 24 23 22 22 23 24 24 25 24 23 22 21 21 20 20 18 17 17 16 15 13 11 10
21 24 19 21 25 27 27 28 28 28 33 29 30 29 28 29 30 32 29 28 26 25 24 23 23 23 23 23 23 21 20 19 19 19 18 17 16 16 15 14 12 9 8 8
19 20 24 25 27 30 31 33 32 32 34 31 30 31 29 32 30 31 30 29 28 26 25 24 24 23 23 21 21 20 19 18 18 17 16 15 15 13 12 10 8 6 6 6
24 22 24 28 32 38 39 39 37 36 33 30 31 29 26 27 28 29 28 27 26 25 23 22 21 20 20 19 18 17 16 16 15 14 13 12 11 10 9 7 5 4 4 5
21 23 27 28 28 23 27 31 28 28 29 28 27 24 23 24 25 27 26 24 22 22 21 21 21 20 19 18 18 17 15 14 13 12 11 9 8 7 6 4 3 3 3 4
22 21 21 22 19 20 19 23 22 24 24 24 24 24 26 24 23 22 22 23 22 22 21 20 20 19 17 16 16 15 14 13 12 10 8 7 6 4 4 3 3 3 4 5
22 21 22 25 24 23 20 22 22 21 21 21 21 23 22 20 19 19 19 20 20 21 20 20 18 18 17 15 14 13 12 12 10 8 7 5 4 3 3 2 2 2 4 5
16 17 19 17 18 19 19 20 20 21 22 20 21 20 19 18 18 18 18 19 19 19 19 18 18 17 15 14 13 12 12 11 9 8 6 5 3 3 2 1 1 2 4 5
16 17 16 16 18 20 21 20 20 19 17 16 17 18 18 18 17 18 18 18 18 18 18 17 17 17 16 15 14 13 12 10 9 8 6 5 4 3 2 2 2 3 3 5
19 21 25 25 23 22 20 19 18 17 17 17 16 16 15 15 16 17 17 17 18 18 17 17 16 16 16 15 14 13 12 11 10 8 7 5 5 4 3 3 3 3 4 5
18 22 22 20 20 19 19 18 17 18 19 18 18 18 18 18 18 18 18 18 19 18 18 18 17 17 17 16 15 14 13 12 11 9 7 6 4 4 3 3 4 4 5 6
20 18 19 17 16 15 18 17 16 16 16 16 17 17 18 19 20 20 20 19 19 19 18 18 17 17 17 16 16 15 14 13 12 10 9 8 6 5 4 4 4 5 7 8
18 17 13 14 16 17 17 18 15 12 13 13 14 15 16 17 17 18 19 19 19 19 17 16 16 16 17 17 17 16 15 14 13 12 10 9 8 7 7 7 7 8 9 10
18 17 17 17 16 15 14 15 15 14 13 13 14 14 15 15 16 17 17 17 17 17 16 15 15 15 15 17 17 16 15 14 13 11 10 10 10 9 9 9 9 10 11 12
17 17 16 15 13 12 12 11 12 13 13 13 14 13 14 14 14 15 14 15 15 15 15 15 15 15 16 17 17 16 15 14 13 12 12 11 11 11 11 11 11 12 14 15
13 13 13 12 11 10 10 11 11 12 13 13 13 13 12 12 11 12 14 15 15 15 15 15 15 16 17 17 16 16 15 14 13 13 12 12 12 12 12 12 12 14 15 16
11 10 11 10 10 10 11 11 11 12 11 11 11 11 11 11 12 12 13 14 15 15 15 16 17 17 17 17 17 16 15 14 13 13 13 13 13 13 13 14 14 15 16 17
8 9 10 10 10 10 10 10 10 11 10 10 10 11 11 12 12 13 13 13 14 15 15 17 17 17 17 17 17 16 15 14 14 14 14 14 14 14 15 15 16 16 18 19
8 8 7 8 8 8 7 8 8 8 9 10 10 10 10 11 12 13 13 13 14 15 16 17 17 17 17 17 17 16 16 15 15 15 15 15 15 15 16 16 17 18 19 21
6 6 5 5 5 5 6 7 7 8 9 9 10 10 11 12 13 13 14 14 15 16 17 18 18 18 17 16 17 16 16 16 15 15 15 15 16 17 17 18 19 20 21 21
5 5 4 4 3 3 3 3 3 3 5 7 9 12 13 14 15 15 15 15 17 18 18 19 18 18 18 17 17 16 16 16 16 16 16 16 17 17 19 19 20 20 21 22
5 5 4 3 3 2 2 1 1 1 2 3 4 6 10 14 16 17 17 17 18 19 19 19 19 19 18 17 17 17 17 17 17 17 17 18 18 19 19 20 20 21 22 23
6 6 5 4 4 3 2 1 2 2 3 3 3 4 5 8 13 16 17 18 19 19 20 19 19 19 18 18 18 17 17 17 17 17 17 18 19 19 20 21 22 22 23 23
7 6 5 4 4 3 2 2 3 4 4 4 4 5 5 5 6 10 16 17 18 19 19 19 19 18 18 18 17 17 17 17 17 18 18 19 20 21 21 22 22 23 23 24
7 6 5 5 5 5 4 4 4 4 4 4 5 6 5 5 5 5 7 12 16 17 18 19 18 18 18 17 17 17 18 18 19 19 20 20 20 20 21 22 22 23 24 24
7 7 6 6 6 5 5 5 5 5 5 5 5 5 6 5 5 5 6 7 10 14 16 17 17 17 17 17 17 17 18 18 18 19 19 19 20 21 21 22 22 23 24 24
7 7 7 6 6 6 6 6 6 6 6 6 6 6 6 6 6 6 7 8 9 10 12 13 14 15 15 16 16 16 16 17 17 18 19 20 21 21 21 22 23 23 24 24
Wind_Direction
237 241 242 240 244 247 246 249 248 257 257 261 266 254 248 248 246 246 249 250 251 257 261 269 276 278 279 282 287 290 293 297 298 301 303 305 306 308 308 309 310 308 310 310
232 240 242 250 253 250 250 252 251 258 262 264 266 264 248 248 247 248 249 249 249 255 257 266 274 277 278 281 285 287 290 293 298 300 303 304 305 307 309 311 311 307 313 316
239 250 259 247 243 249 251 251 257 258 265 267 260 259 258 255 252 246 249 250 252 254 258 266 273 274 278 279 282 284 285 287 294 297 300 302 304 307 309 313 315 315 315 325
254 261 255 257 260 258 257 258 261 261 264 268 266 260 262 261 252 248 250 251 252 253 257 265 267 271 275 276 278 280 282 285 290 292 299 302 305 308 312 314 317 318 330 336
257 257 265 264 263 261 259 259 257 261 263 260 260 256 264 266 261 251 250 252 247 250 256 262 266 267 270 272 273 274 274 279 285 290 293 295 302 310 310 316 327 335 343 345
253 259 265 267 257 256 264 262 261 259 261 263 265 263 265 269 259 255 250 246 247 250 255 259 260 264 263 266 266 266 263 270 276 282 280 283 291 296 310 300 322 336 350 349
251 256 260 251 262 265 258 262 264 262 263 265 264 265 264 262 262 254 246 246 247 250 253 254 256 257 258 259 257 255 255 262 265 264 261 267 267 278 302 297 300 336 352 352
249 249 256 263 257 256 259 267 267 265 262 265 263 262 260 257 253 249 247 246 246 247 248 249 252 250 249 247 247 249 252 253 247 242 240 241 252 267 277 285 318 335 344 350
245 252 257 261 259 264 263 263 264 262 261 258 256 257 255 254 251 251 246 243 242 241 244 247 245 240 242 241 242 243 242 236 228 223 227 231 236 245 250 285 309 322 336 344
271 265 264 266 267 266 260 259 263 260 253 254 258 254 250 250 247 247 244 243 241 240 239 241 240 239 235 233 235 234 228 220 211 214 220 226 231 237 249 280 294 313 326 335
269 281 270 268 264 265 266 262 263 259 257 255 254 251 249 250 249 247 242 241 240 238 240 241 236 232 230 231 228 223 215 211 208 210 215 217 220 230 251 278 287 300 312 321
267 275 267 266 269 267 255 259 261 251 253 253 253 252 252 252 250 246 243 242 240 238 240 234 228 225 226 224 220 213 207 209 210 214 218 219 225 238 255 271 291 306 313 315
256 261 269 265 268 266 262 258 247 240 244 245 251 254 255 253 249 244 241 238 237 236 235 225 223 225 226 220 211 209 209 209 213 217 220 226 236 245 257 271 282 293 309 312
254 258 265 267 273 271 259 253 241 244 247 253 258 259 254 252 248 242 238 231 226 222 221 221 221 222 218 211 208 207 206 209 214 218 224 232 244 253 261 269 278 288 301 308
250 252 261 270 263 264 257 248 239 243 251 260 260 255 251 247 244 234 222 216 215 216 218 218 217 216 211 204 202 203 208 213 220 227 235 242 250 259 267 272 276 286 297 303
242 248 250 250 254 254 251 247 247 253 257 258 256 248 245 239 231 217 215 215 215 217 217 214 212 208 204 203 203 207 212 218 225 233 240 248 255 263 270 277 279 287 297 301
237 241 242 245 248 255 257 257 251 253 254 251 247 238 231 227 222 219 218 217 216 216 215 212 208 208 208 210 212 215 219 225 230 240 245 253 260 267 273 280 284 290 296 300
240 248 244 246 250 256 259 255 252 250 246 245 240 232 228 225 223 218 217 214 215 216 215 212 210 210 210 213 216 219 224 230 237 245 252 257 263 269 275 280 285 289 295 299
244 249 251 250 248 248 252 253 251 248 246 242 235 232 229 224 219 217 217 218 217 214 213 211 209 210 213 220 220 226 230 237 244 250 254 260 266 272 277 282 286 290 293 297
260 249 235 233 239 245 254 259 256 255 250 242 237 232 228 225 222 223 223 222 220 219 212 212 212 215 220 222 226 231 236 242 247 253 257 262 268 274 278 283 287 291 294 297
233 218 215 224 235 243 244 247 243 251 252 244 242 240 235 233 230 229 227 226 223 220 218 217 220 222 225 229 232 236 240 245 250 255 259 264 271 275 281 285 289 291 294 296
209 204 208 206 198 185 196 231 265 281 281 281 271 258 245 240 235 235 234 230 226 223 222 223 225 227 228 232 235 240 244 249 254 259 264 269 273 278 283 286 289 291 294 296
201 202 200 199 193 193 211 251 280 282 288 285 284 279 278 259 241 235 234 230 227 227 225 227 227 229 231 237 240 244 248 253 258 263 267 272 277 280 283 287 289 292 294 296
195 194 199 199 201 210 229 264 288 292 286 280 283 285 285 285 266 246 234 228 227 226 226 227 227 230 233 238 243 247 251 256 260 265 271 276 280 282 285 288 290 292 294 297
198 202 207 211 218 235 247 264 282 285 285 287 280 277 280 279 268 253 236 229 226 225 226 226 228 232 237 241 245 252 257 261 265 270 274 278 280 283 286 288 291 293 295 297
207 215 221 228 239 247 257 263 273 279 284 286 284 278 273 270 262 245 239 232 227 226 228 229 232 237 241 245 250 255 259 264 268 272 276 278 282 286 288 290 292 294 296 298
219 221 230 240 243 248 255 260 270 275 276 278 280 271 268 264 257 246 240 237 233 228 227 229 234 239 242 247 253 257 261 267 270 274 277 281 285 287 288 291 293 295 296 298